SWR22A LSZH-EDDF

Flight info

Callsign SWR22A
Flight time 0h 44m
Altitude 20000
Route DEGE5L DEGES Z1 SUDEN T164 KOVAN T163 SPESA SPESA4B
Aircraft A333/H-SDE3GHIJ2J3J5M1RVWXY/LB2D1

Departure

Time 2026-05-05 19:26
Airport Zürich Airport (LSZH)

Arrival

Time 2026-05-05 20:11
Airport Frankfurt Main Airport (EDDF)
Time Latitude Longitude Altitude Speed Heading
2026-05-05 18:51 47.46071 8.55244 1411 ft 0 kts
2026-05-05 19:15 47.46064 8.55243 1408 ft 3 kts
2026-05-05 19:15 47.46045 8.55240 1400 ft 3 kts
2026-05-05 19:16 47.46026 8.55237 1400 ft 3 kts
2026-05-05 19:16 47.46005 8.55233 1401 ft 3 kts 29°
2026-05-05 19:16 47.45990 8.55212 1407 ft 3 kts 78°
2026-05-05 19:16 47.45988 8.55196 1407 ft 0 kts 105°
2026-05-05 19:18 47.45988 8.55198 1407 ft 1 kts 104°
2026-05-05 19:19 47.45985 8.55246 1405 ft 6 kts 96°
2026-05-05 19:19 47.45980 8.55304 1404 ft 8 kts 96°
2026-05-05 19:19 47.45971 8.55424 1402 ft 13 kts 96°
2026-05-05 19:19 47.45961 8.55556 1407 ft 13 kts 96°
2026-05-05 19:20 47.45951 8.55690 1401 ft 13 kts 96°
2026-05-05 19:20 47.45942 8.55814 1403 ft 12 kts 96°
2026-05-05 19:20 47.45934 8.55934 1412 ft 11 kts 96°
2026-05-05 19:20 47.45926 8.56048 1409 ft 11 kts 96°
2026-05-05 19:21 47.45921 8.56128 1414 ft 0 kts 96°
2026-05-05 19:21 47.45920 8.56130 1414 ft 1 kts 96°
2026-05-05 19:21 47.45920 8.56139 1414 ft 0 kts 96°
2026-05-05 19:22 47.45918 8.56160 1413 ft 7 kts 96°
2026-05-05 19:22 47.45918 8.56247 1411 ft 9 kts 83°
2026-05-05 19:23 47.45956 8.56307 1413 ft 6 kts 19°
2026-05-05 19:23 47.45997 8.56321 1412 ft 6 kts
2026-05-05 19:23 47.46002 8.56323 1412 ft 0 kts
2026-05-05 19:23 47.46003 8.56323 1412 ft 1 kts
2026-05-05 19:24 47.46027 8.56328 1412 ft 5 kts
2026-05-05 19:24 47.46071 8.56352 1414 ft 9 kts 30°
2026-05-05 19:24 47.46131 8.56398 1409 ft 10 kts
2026-05-05 19:24 47.46192 8.56356 1409 ft 3 kts 321°
2026-05-05 19:25 47.46193 8.56356 1409 ft 0 kts 321°
2026-05-05 19:25 47.46198 8.56349 1409 ft 8 kts 319°
2026-05-05 19:25 47.46390 8.56085 1408 ft 70 kts 317°
2026-05-05 19:26 47.46908 8.55376 1408 ft 131 kts 317°
2026-05-05 19:26 47.47733 8.54260 1599 ft 178 kts 313°
2026-05-05 19:26 47.48726 8.52973 2134 ft 202 kts 318°
2026-05-05 19:26 47.49895 8.51646 2748 ft 220 kts 323°
2026-05-05 19:27 47.51246 8.50497 3341 ft 229 kts 328°
2026-05-05 19:27 47.52604 8.49191 4000 ft 237 kts 315°
2026-05-05 19:27 47.53532 8.47246 4846 ft 230 kts 283°
2026-05-05 19:27 47.53624 8.44948 5869 ft 221 kts 261°
2026-05-05 19:28 47.53212 8.42776 6843 ft 218 kts 246°
2026-05-05 19:28 47.52491 8.40822 7803 ft 216 kts 236°
2026-05-05 19:28 47.51522 8.39121 8675 ft 219 kts 224°
2026-05-05 19:28 47.50143 8.38154 9495 ft 230 kts 187°
2026-05-05 19:29 47.48589 8.38812 10299 ft 242 kts 148°
2026-05-05 19:29 47.47547 8.40768 11154 ft 248 kts 123°
2026-05-05 19:29 47.46777 8.43170 11283 ft 265 kts 115°
2026-05-05 19:29 47.46295 8.45685 11915 ft 252 kts 104°
2026-05-05 19:30 47.46047 8.48258 12508 ft 256 kts 105°
2026-05-05 19:30 47.45648 8.50864 12968 ft 264 kts 108°
2026-05-05 19:30 47.45267 8.53563 13414 ft 272 kts 103°
2026-05-05 19:30 47.45043 8.56385 13816 ft 282 kts 97°
2026-05-05 19:31 47.44948 8.59308 14145 ft 298 kts 96°
2026-05-05 19:31 47.44851 8.62450 14536 ft 306 kts 96°
2026-05-05 19:31 47.44719 8.65643 14937 ft 319 kts 97°
2026-05-05 19:31 47.44549 8.68973 15401 ft 330 kts 97°
2026-05-05 19:32 47.44369 8.72404 15884 ft 340 kts 97°
2026-05-05 19:32 47.44098 8.75910 16400 ft 348 kts 101°
2026-05-05 19:32 47.43784 8.79489 16903 ft 356 kts 99°
2026-05-05 19:32 47.43501 8.83139 17435 ft 363 kts 98°
2026-05-05 19:33 47.43243 8.86894 17992 ft 370 kts 98°
2026-05-05 19:33 47.43002 8.90703 18494 ft 377 kts 98°
2026-05-05 19:33 47.42781 8.94593 18973 ft 383 kts 96°
2026-05-05 19:33 47.42582 8.98525 19455 ft 388 kts 96°
2026-05-05 19:34 47.42371 9.02568 19804 ft 398 kts 96°
2026-05-05 19:34 47.42142 9.06710 19882 ft 414 kts 96°
2026-05-05 19:34 47.41896 9.11005 19886 ft 424 kts 96°
2026-05-05 19:35 47.41326 9.19718 19880 ft 426 kts 99°
2026-05-05 19:35 47.41230 9.24070 19897 ft 430 kts 83°
2026-05-05 19:35 47.42143 9.28279 19887 ft 432 kts 62°
2026-05-05 19:35 47.43804 9.31808 19887 ft 434 kts 50°
2026-05-05 19:36 47.45858 9.35278 19886 ft 435 kts 47°
2026-05-05 19:36 47.47203 9.37564 19911 ft 436 kts 49°
2026-05-05 19:36 47.52844 9.43462 19905 ft 443 kts 14°
2026-05-05 19:37 47.55816 9.44632 19911 ft 443 kts
2026-05-05 19:37 47.58843 9.45437 19884 ft 442 kts
2026-05-05 19:37 47.61910 9.45632 19880 ft 441 kts 356°
2026-05-05 19:37 47.64982 9.45583 19886 ft 444 kts 355°
2026-05-05 19:38 47.68082 9.45505 19882 ft 447 kts 357°
2026-05-05 19:38 47.71200 9.45536 19884 ft 448 kts 358°
2026-05-05 19:38 47.74310 9.45654 19883 ft 448 kts 359°
2026-05-05 19:38 47.77433 9.45820 19881 ft 448 kts 359°
2026-05-05 19:39 47.80546 9.45987 19884 ft 448 kts 359°
2026-05-05 19:39 47.83668 9.46066 19883 ft 448 kts 358°
2026-05-05 19:39 47.86778 9.46082 19872 ft 447 kts 357°
2026-05-05 19:39 47.89892 9.46066 19874 ft 447 kts 357°
2026-05-05 19:40 47.93000 9.46040 19867 ft 447 kts 357°
2026-05-05 19:40 47.96109 9.46015 19868 ft 447 kts 357°
2026-05-05 19:40 47.99219 9.45995 19868 ft 447 kts 357°
2026-05-05 19:40 48.02370 9.45980 19859 ft 447 kts 357°
2026-05-05 19:41 48.05478 9.45969 19863 ft 447 kts 357°
2026-05-05 19:41 48.08485 9.45960 19859 ft 447 kts 358°
2026-05-05 19:41 48.11548 9.45953 19860 ft 447 kts 358°
2026-05-05 19:41 48.14620 9.45945 19857 ft 447 kts 358°
2026-05-05 19:42 48.17730 9.45938 19852 ft 447 kts 358°
2026-05-05 19:42 48.20846 9.45936 19850 ft 447 kts 358°
2026-05-05 19:42 48.23953 9.45937 19855 ft 447 kts 358°
2026-05-05 19:42 48.27052 9.45940 19858 ft 447 kts 358°
2026-05-05 19:43 48.30163 9.45945 19852 ft 446 kts 358°
2026-05-05 19:43 48.33266 9.45949 19854 ft 445 kts 358°
2026-05-05 19:43 48.36366 9.45951 19848 ft 445 kts 358°
2026-05-05 19:43 48.39453 9.45953 19845 ft 445 kts 358°
2026-05-05 19:44 48.42525 9.45955 19846 ft 445 kts 358°
2026-05-05 19:44 48.45625 9.45956 19841 ft 445 kts 358°
2026-05-05 19:44 48.48714 9.45957 19840 ft 445 kts 358°
2026-05-05 19:44 48.51811 9.45908 19840 ft 444 kts 353°
2026-05-05 19:45 48.54775 9.44874 19835 ft 436 kts 334°
2026-05-05 19:45 48.57313 9.42468 19835 ft 430 kts 314°
2026-05-05 19:45 48.59307 9.39116 19831 ft 429 kts 307°
2026-05-05 19:45 48.61536 9.36085 19826 ft 437 kts 324°
2026-05-05 19:46 48.64280 9.34110 19831 ft 441 kts 340°
2026-05-05 19:46 48.67285 9.33057 19833 ft 443 kts 348°
2026-05-05 19:46 48.70328 9.32410 19834 ft 443 kts 350°
2026-05-05 19:46 48.73387 9.31826 19829 ft 443 kts 350°
2026-05-05 19:47 48.76437 9.31156 19831 ft 442 kts 348°
2026-05-05 19:47 48.79474 9.30362 19831 ft 442 kts 347°
2026-05-05 19:47 48.82492 9.29464 19828 ft 442 kts 346°
2026-05-05 19:47 48.85502 9.28493 19830 ft 442 kts 345°
2026-05-05 19:48 48.88501 9.27485 19829 ft 442 kts 345°
2026-05-05 19:48 48.91497 9.26459 19828 ft 442 kts 345°
2026-05-05 19:48 48.94491 9.25431 19831 ft 442 kts 345°
2026-05-05 19:48 48.97496 9.24401 19832 ft 443 kts 345°
2026-05-05 19:49 49.00504 9.23375 19827 ft 443 kts 345°
2026-05-05 19:49 49.02497 9.22696 19826 ft 443 kts 344°
2026-05-05 19:49 49.06507 9.21259 19826 ft 443 kts 343°
2026-05-05 19:49 49.09507 9.20164 19826 ft 443 kts 343°
2026-05-05 19:50 49.12514 9.19087 19823 ft 443 kts 343°
2026-05-05 19:50 49.15518 9.18026 19823 ft 443 kts 344°
2026-05-05 19:50 49.18527 9.16979 19823 ft 443 kts 344°
2026-05-05 19:50 49.21525 9.15948 19824 ft 443 kts 344°
2026-05-05 19:51 49.24540 9.14914 19605 ft 439 kts 344°
2026-05-05 19:51 49.27509 9.13936 18995 ft 435 kts 348°
2026-05-05 19:51 49.30390 9.13656 18643 ft 426 kts 357°
2026-05-05 19:51 49.33402 9.13864 18182 ft 419 kts
2026-05-05 19:52 49.36293 9.14303 17558 ft 415 kts
2026-05-05 19:52 49.39150 9.14826 16916 ft 412 kts
2026-05-05 19:52 49.41974 9.15352 16332 ft 407 kts
2026-05-05 19:52 49.44771 9.15844 15724 ft 403 kts
2026-05-05 19:53 49.47551 9.16299 15151 ft 399 kts
2026-05-05 19:53 49.50309 9.16682 14869 ft 397 kts 359°
2026-05-05 19:53 49.53064 9.16987 14797 ft 397 kts 359°
2026-05-05 19:53 49.55809 9.17273 14270 ft 396 kts 359°
2026-05-05 19:54 49.58557 9.17596 13687 ft 393 kts 360°
2026-05-05 19:54 49.60993 9.16524 13426 ft 0 kts 360°
2026-05-05 19:54 49.63110 9.16480 13384 ft 363 kts 352°
2026-05-05 19:54 49.65553 9.16198 13324 ft 343 kts 346°
2026-05-05 19:55 49.67847 9.15611 13218 ft 326 kts 341°
2026-05-05 19:55 49.69996 9.14755 13083 ft 312 kts 336°
2026-05-05 19:55 49.72110 9.14202 12521 ft 316 kts 359°
2026-05-05 19:55 49.74241 9.15232 11617 ft 333 kts 23°
2026-05-05 19:56 49.76307 9.16931 10842 ft 340 kts 20°
2026-05-05 19:56 49.78505 9.18367 10028 ft 347 kts 11°
2026-05-05 19:56 49.80899 9.18950 9350 ft 345 kts 353°
2026-05-05 19:56 49.83144 9.18420 9722 ft 307 kts 334°
2026-05-05 19:57 49.85021 9.16945 9527 ft 314 kts 314°
2026-05-05 19:57 49.86091 9.15493 9505 ft 299 kts 307°
2026-05-05 19:57 49.87439 9.13239 9640 ft 272 kts 295°
2026-05-05 19:57 49.88442 9.10875 9473 ft 259 kts 294°
2026-05-05 19:58 49.89455 9.08608 9466 ft 252 kts 292°
2026-05-05 19:58 49.90436 9.06364 9046 ft 250 kts 292°
2026-05-05 19:58 49.91405 9.04137 8629 ft 247 kts 290°
2026-05-05 19:58 49.92112 9.01777 8365 ft 237 kts 274°
2026-05-05 19:59 49.92559 8.99296 7937 ft 240 kts 274°
2026-05-05 19:59 49.92981 8.96796 7829 ft 240 kts 272°
2026-05-05 19:59 49.93338 8.94263 7808 ft 242 kts 274°
2026-05-05 19:59 49.93956 8.91795 7799 ft 252 kts 291°
2026-05-05 20:00 49.95063 8.89653 7459 ft 259 kts 304°
2026-05-05 20:00 49.96523 8.87964 6989 ft 264 kts 320°
2026-05-05 20:00 49.98220 8.86982 6829 ft 259 kts 337°
2026-05-05 20:00 50.00025 8.86782 6821 ft 264 kts 353°
2026-05-05 20:01 50.01834 8.87358 6527 ft 270 kts 16°
2026-05-05 20:01 50.03233 8.89218 6268 ft 264 kts 51°
2026-05-05 20:01 50.03958 8.91770 6030 ft 255 kts 63°
2026-05-05 20:01 50.04453 8.94388 5700 ft 251 kts 67°
2026-05-05 20:02 50.04930 8.96996 5296 ft 251 kts 65°
2026-05-05 20:02 50.05454 8.99592 5042 ft 252 kts 64°
2026-05-05 20:02 50.06019 9.02176 5021 ft 252 kts 58°
2026-05-05 20:02 50.07109 9.04129 5007 ft 234 kts 16°
2026-05-05 20:03 50.08623 9.04354 4991 ft 216 kts 328°
2026-05-05 20:03 50.09750 9.02951 4984 ft 212 kts 294°
2026-05-05 20:03 50.10563 9.00936 4994 ft 226 kts 287°
2026-05-05 20:03 50.11285 8.98757 4998 ft 232 kts 284°
2026-05-05 20:04 50.11992 8.96453 5002 ft 234 kts 284°
2026-05-05 20:04 50.12610 8.94127 5018 ft 226 kts 274°
2026-05-05 20:04 50.12919 8.91825 5003 ft 207 kts 268°
2026-05-05 20:04 50.12936 8.89733 5018 ft 182 kts 250°
2026-05-05 20:05 50.12679 8.87875 5003 ft 172 kts 242°
2026-05-05 20:05 50.12295 8.86108 5006 ft 173 kts 238°
2026-05-05 20:05 50.11874 8.84334 4895 ft 176 kts 238°
2026-05-05 20:05 50.11454 8.82542 4641 ft 176 kts 238°
2026-05-05 20:06 50.11036 8.80756 4332 ft 175 kts 238°
2026-05-05 20:06 50.10617 8.78975 4044 ft 174 kts 238°
2026-05-05 20:06 50.10206 8.77220 3789 ft 169 kts 239°
2026-05-05 20:06 50.09823 8.75574 3561 ft 159 kts 239°
2026-05-05 20:07 50.09447 8.73977 3327 ft 152 kts 238°
2026-05-05 20:07 50.09091 8.72489 3147 ft 147 kts 238°
2026-05-05 20:07 50.08739 8.71008 2928 ft 145 kts 238°
2026-05-05 20:07 50.08388 8.69540 2728 ft 146 kts 238°
2026-05-05 20:08 50.08038 8.68057 2519 ft 146 kts 238°
2026-05-05 20:08 50.07689 8.66582 2301 ft 145 kts 236°
2026-05-05 20:08 50.07337 8.65116 2096 ft 143 kts 236°
2026-05-05 20:08 50.07000 8.63675 1886 ft 140 kts 236°
2026-05-05 20:09 50.06665 8.62278 1712 ft 137 kts 234°
2026-05-05 20:09 50.06355 8.60861 1482 ft 139 kts 239°
2026-05-05 20:09 50.06077 8.59423 1282 ft 138 kts 249°
2026-05-05 20:09 50.05728 8.58034 1055 ft 137 kts 244°
2026-05-05 20:10 50.05362 8.56636 847 ft 138 kts 250°
2026-05-05 20:10 50.05042 8.55222 688 ft 139 kts 249°
2026-05-05 20:10 50.04696 8.53819 468 ft 138 kts 248°
2026-05-05 20:10 50.04353 8.52441 370 ft 125 kts 249°
2026-05-05 20:11 50.04112 8.51415 361 ft 61 kts 250°
2026-05-05 20:11 50.04043 8.51171 361 ft 2 kts 240°
2026-05-05 20:11 50.03958 8.50996 359 ft 31 kts 224°
2026-05-05 20:11 50.03830 8.50868 354 ft 0 kts 172°
2026-05-05 20:12 50.03790 8.50902 356 ft 14 kts 142°
2026-05-05 20:12 50.03743 8.51002 358 ft 11 kts 117°
2026-05-05 20:12 50.03692 8.51159 360 ft 20 kts 116°
2026-05-05 20:13 50.03632 8.51347 360 ft 17 kts 116°
2026-05-05 20:13 50.03589 8.51482 370 ft 9 kts 115°
2026-05-05 20:13 50.03551 8.51609 353 ft 19 kts 117°
2026-05-05 20:13 50.03523 8.51723 368 ft 14 kts 104°
2026-05-05 20:14 50.03519 8.51884 370 ft 15 kts 83°
2026-05-05 20:14 50.03532 8.52043 373 ft 13 kts 83°
2026-05-05 20:14 50.03541 8.52166 374 ft 9 kts 83°
2026-05-05 20:14 50.03547 8.52242 377 ft 5 kts 83°
2026-05-05 20:15 50.03553 8.52291 378 ft 4 kts 77°
2026-05-05 20:15 50.03564 8.52352 380 ft 6 kts 72°
2026-05-05 20:15 50.03584 8.52391 381 ft 3 kts 29°
2026-05-05 20:15 50.03610 8.52388 380 ft 8 kts 353°
2026-05-05 20:16 50.03639 8.52376 378 ft 0 kts 343°